Time,TemperatureF,DewpointF,PressureIn,WindDirection,WindDirectionDegrees,WindSpeedMPH,WindSpeedGustMPH,Humidity,HourlyPrecipIn,Conditions,Clouds,dailyrainin,SoftwareType,DateUTC
2013-02-12 00:01:00,23.0,12.3,29.35,NE,45,0.0,0.0,63,0.00,CLR,SCT,0.00,WeatherDisplay:10.37,2013-02-12 09:01:00,
2013-02-12 00:06:00,22.8,12.5,29.35,NE,45,0.0,0.0,64,0.00,CLR,SCT,0.00,WeatherDisplay:10.37,2013-02-12 09:06:00,
2013-02-12 00:11:00,22.8,12.5,29.32,NE,45,0.0,0.0,64,0.00,CLR,SCT,0.00,WeatherDisplay:10.37,2013-02-12 09:11:00,
2013-02-12 00:16:00,22.8,12.8,29.32,NNW,338,4.6,4.6,65,0.00,CLR,SCT,0.00,WeatherDisplay:10.37,2013-02-12 09:16:00,
2013-02-12 00:21:00,22.8,13.2,29.32,NNW,338,0.0,0.0,66,0.00,CLR,SCT,0.00,WeatherDisplay:10.37,2013-02-12 09:21:00,
2013-02-12 00:26:00,22.5,12.8,29.35,NW,315,4.6,4.6,66,0.00,CLR,SCT,0.00,WeatherDisplay:10.37,2013-02-12 09:26:00,
2013-02-12 00:31:00,22.3,13.0,29.35,NW,315,2.3,0.0,67,0.00,CLR,SCT,0.00,WeatherDisplay:10.37,2013-02-12 09:31:00,
2013-02-12 00:36:00,22.3,13.0,29.35,NW,315,0.0,0.0,67,0.00,CLR,SCT,0.00,WeatherDisplay:10.37,2013-02-12 09:36:00,
2013-02-12 00:41:00,22.3,13.6,29.35,North,0,4.6,0.0,69,0.00,CLR,SCT,0.00,WeatherDisplay:10.37,2013-02-12 09:41:00,
2013-02-12 00:46:00,22.3,14.0,29.35,North,0,0.0,0.0,70,0.00,CLR,SCT,0.00,WeatherDisplay:10.37,2013-02-12 09:46:00,
2013-02-12 00:51:00,22.3,14.0,29.35,NNW,338,0.0,0.0,70,0.00,CLR,SCT,0.00,WeatherDisplay:10.37,2013-02-12 09:51:00,
2013-02-12 00:56:00,22.3,14.3,29.35,NNW,338,3.5,3.5,71,0.00,CLR,SCT,0.00,WeatherDisplay:10.37,2013-02-12 09:56:00,
2013-02-12 01:01:00,22.5,14.8,29.35,NNW,338,3.5,3.5,72,0.00,CLR,SCT,0.00,WeatherDisplay:10.37,2013-02-12 10:01:00,
2013-02-12 01:06:00,22.6,15.3,29.35,NNW,338,3.6,3.6,73,0.00,CLR,SCT,0.00,WeatherDisplay:10.37,2013-02-12 10:06:00,
2013-02-12 01:11:00,22.8,16.1,29.35,NNW,338,4.6,4.6,75,0.00,CLR,SCT,0.00,WeatherDisplay:10.37,2013-02-12 10:11:00,
2013-02-12 01:16:00,23.0,16.9,29.35,NNW,338,3.1,3.1,77,0.00,CLR,SCT,0.00,WeatherDisplay:10.37,2013-02-12 10:16:00,
2013-02-12 01:21:00,23.0,16.9,29.35,NNW,338,3.6,0.0,77,0.00,CLR,SCT,0.00,WeatherDisplay:10.37,2013-02-12 10:21:00,
2013-02-12 01:26:00,23.2,17.3,29.35,NNW,338,3.5,0.0,78,0.00,CLR,SCT,0.00,WeatherDisplay:10.37,2013-02-12 10:26:00,
2013-02-12 01:31:00,23.4,17.8,29.35,NNW,338,0.0,0.0,79,0.00,CLR,SCT,0.00,WeatherDisplay:10.37,2013-02-12 10:31:00,
2013-02-12 01:36:00,23.4,18.1,29.35,NNW,338,0.0,0.0,80,0.00,CLR,SCT,0.00,WeatherDisplay:10.37,2013-02-12 10:36:00,
2013-02-12 01:41:00,23.5,18.3,29.35,NNW,338,4.6,4.6,80,0.00,CLR,SCT,0.00,WeatherDisplay:10.37,2013-02-12 10:41:00,
2013-02-12 01:46:00,23.7,18.7,29.35,NNW,338,3.5,3.5,81,0.00,CLR,SCT,0.00,WeatherDisplay:10.37,2013-02-12 10:46:00,
2013-02-12 01:51:00,23.7,18.7,29.35,NNW,338,2.3,0.0,81,0.00,CLR,SCT,0.00,WeatherDisplay:10.37,2013-02-12 10:51:00,
2013-02-12 01:56:00,23.9,18.9,29.35,NNW,338,2.3,0.0,81,0.00,CLR,SCT,0.00,WeatherDisplay:10.37,2013-02-12 10:56:00,
2013-02-12 02:01:00,23.9,19.2,29.35,NNE,22,3.5,3.5,82,0.00,CLR,SCT,0.00,WeatherDisplay:10.37,2013-02-12 11:01:00,
2013-02-12 02:06:00,24.1,19.4,29.35,NW,315,3.5,0.0,82,0.00,CLR,SCT,0.00,WeatherDisplay:10.37,2013-02-12 11:06:00,
2013-02-12 02:11:00,24.1,19.4,29.35,NNW,338,4.6,4.6,82,0.00,CLR,SCT,0.00,WeatherDisplay:10.37,2013-02-12 11:11:00,
2013-02-12 02:16:00,24.1,19.7,29.35,NNW,338,3.6,3.6,83,0.00,CLR,SCT,0.00,WeatherDisplay:10.37,2013-02-12 11:16:00,
2013-02-12 02:21:00,24.3,19.8,29.35,NNW,338,2.3,0.0,83,0.00,CLR,SCT,0.00,WeatherDisplay:10.37,2013-02-12 11:21:00,
2013-02-12 02:26:00,24.3,19.8,29.35,NNW,338,3.6,0.0,83,0.00,CLR,SCT,0.00,WeatherDisplay:10.37,2013-02-12 11:26:00,
2013-02-12 02:31:00,24.4,20.3,29.35,North,0,4.6,0.0,84,0.00,CLR,SCT,0.00,WeatherDisplay:10.37,2013-02-12 11:31:00,
2013-02-12 02:36:00,24.4,20.3,29.35,North,0,3.5,3.5,84,0.00,CLR,SCT,0.00,WeatherDisplay:10.37,2013-02-12 11:36:00,
2013-02-12 02:41:00,24.4,20.3,29.35,North,0,0.0,0.0,84,0.00,CLR,SCT,0.00,WeatherDisplay:10.37,2013-02-12 11:41:00,
2013-02-12 02:46:00,24.4,20.6,29.35,North,0,4.6,4.6,85,0.00,CLR,SCT,0.00,WeatherDisplay:10.37,2013-02-12 11:46:00,
2013-02-12 02:51:00,24.4,20.6,29.35,North,0,2.2,0.0,85,0.00,CLR,SCT,0.00,WeatherDisplay:10.37,2013-02-12 11:51:00,
2013-02-12 02:56:00,24.4,20.6,29.35,North,0,4.6,0.0,85,0.00,CLR,SCT,0.00,WeatherDisplay:10.37,2013-02-12 11:56:00,
2013-02-12 03:01:00,24.4,20.6,29.35,North,0,0.0,0.0,85,0.00,CLR,SCT,0.00,WeatherDisplay:10.37,2013-02-12 12:01:00,
2013-02-12 03:06:00,24.4,20.6,29.35,North,0,2.3,0.0,85,0.00,CLR,SCT,0.00,WeatherDisplay:10.37,2013-02-12 12:06:00,
2013-02-12 03:11:00,24.4,20.6,29.35,North,0,0.0,0.0,85,0.00,CLR,SCT,0.00,WeatherDisplay:10.37,2013-02-12 12:11:00,
2013-02-12 03:16:00,24.3,20.4,29.35,North,0,2.3,0.0,85,0.00,CLR,SCT,0.00,WeatherDisplay:10.37,2013-02-12 12:16:00,
2013-02-12 03:22:00,24.3,20.4,29.35,North,0,2.3,0.0,85,0.00,CLR,SCT,0.00,WeatherDisplay:10.37,2013-02-12 12:22:00,
2013-02-12 03:27:00,24.3,20.4,29.38,North,0,0.0,0.0,85,0.00,CLR,SCT,0.00,WeatherDisplay:10.37,2013-02-12 12:27:00,
2013-02-12 03:32:00,24.3,20.4,29.38,North,0,3.5,3.5,85,0.00,CLR,SCT,0.00,WeatherDisplay:10.37,2013-02-12 12:32:00,
2013-02-12 03:37:00,24.1,20.5,29.38,NE,45,2.6,3.1,86,0.00,CLR,SCT,0.00,WeatherDisplay:10.37,2013-02-12 12:37:00,
2013-02-12 03:42:00,24.1,20.5,29.35,ENE,68,2.6,4.0,86,0.00,CLR,SCT,0.00,WeatherDisplay:10.37,2013-02-12 12:42:00,
2013-02-12 03:47:00,24.3,20.7,29.35,NE,45,2.6,0.0,86,0.00,CLR,SCT,0.00,WeatherDisplay:10.37,2013-02-12 12:47:00,
2013-02-12 03:52:00,24.1,20.5,29.35,NE,45,0.0,0.0,86,0.00,CLR,SCT,0.00,WeatherDisplay:10.37,2013-02-12 12:52:00,
2013-02-12 03:57:00,24.1,20.5,29.35,NE,45,3.5,3.6,86,0.00,CLR,SCT,0.00,WeatherDisplay:10.37,2013-02-12 12:57:00,
2013-02-12 04:02:00,23.9,20.3,29.35,NE,45,0.0,0.0,86,0.00,CLR,SCT,0.00,WeatherDisplay:10.37,2013-02-12 13:02:00,
2013-02-12 04:07:00,23.5,20.0,29.35,NE,45,0.0,0.0,86,0.00,CLR,SCT,0.00,WeatherDisplay:10.37,2013-02-12 13:07:00,
2013-02-12 04:12:00,23.4,19.8,29.35,NE,45,0.0,0.0,86,0.00,CLR,SCT,0.00,WeatherDisplay:10.37,2013-02-12 13:12:00,
2013-02-12 04:17:00,23.0,19.4,29.35,NE,45,0.0,0.0,86,0.00,CLR,SCT,0.00,WeatherDisplay:10.37,2013-02-12 13:17:00,
2013-02-12 04:22:00,22.8,19.5,29.35,NE,45,0.0,0.0,87,0.00,CLR,SCT,0.00,WeatherDisplay:10.37,2013-02-12 13:22:00,
2013-02-12 04:27:00,22.5,19.2,29.35,NE,45,0.0,0.0,87,0.00,CLR,SCT,0.00,WeatherDisplay:10.37,2013-02-12 13:27:00,
2013-02-12 04:32:00,22.3,19.0,29.35,NE,45,0.0,0.0,87,0.00,CLR,SCT,0.00,WeatherDisplay:10.37,2013-02-12 13:32:00,
2013-02-12 04:37:00,21.9,18.6,29.35,NE,45,0.0,0.0,87,0.00,CLR,SCT,0.00,WeatherDisplay:10.37,2013-02-12 13:37:00,
2013-02-12 04:42:00,22.1,18.8,29.35,NE,45,0.0,0.0,87,0.00,CLR,SCT,0.00,WeatherDisplay:10.37,2013-02-12 13:42:00,
2013-02-12 04:47:00,22.1,18.8,29.35,NE,45,0.0,0.0,87,0.00,CLR,SCT,0.00,WeatherDisplay:10.37,2013-02-12 13:47:00,
2013-02-12 04:52:00,22.1,19.1,29.35,NE,45,0.0,0.0,88,0.00,CLR,SCT,0.00,WeatherDisplay:10.37,2013-02-12 13:52:00,
2013-02-12 04:57:00,22.8,20.1,29.35,NE,45,4.6,4.6,89,0.00,CLR,SCT,0.00,WeatherDisplay:10.37,2013-02-12 13:57:00,
2013-02-12 05:02:00,23.5,20.8,29.35,NE,45,3.1,3.1,89,0.00,CLR,SCT,0.00,WeatherDisplay:10.37,2013-02-12 14:02:00,
2013-02-12 05:07:00,24.3,21.8,29.35,ENE,68,4.6,4.9,90,0.00,CLR,SCT,0.00,WeatherDisplay:10.37,2013-02-12 14:07:00,
2013-02-12 05:12:00,24.6,22.1,29.35,ENE,68,5.8,5.8,90,0.00,CLR,SCT,0.00,WeatherDisplay:10.37,2013-02-12 14:12:00,
2013-02-12 05:17:00,24.6,22.1,29.35,ENE,68,6.9,6.9,90,0.00,CLR,SCT,0.00,WeatherDisplay:10.37,2013-02-12 14:17:00,
2013-02-12 05:22:00,24.4,21.9,29.35,ENE,68,4.6,0.0,90,0.00,CLR,SCT,0.00,WeatherDisplay:10.37,2013-02-12 14:22:00,
2013-02-12 05:27:00,24.4,21.9,29.35,NE,45,4.6,4.6,90,0.00,CLR,SCT,0.00,WeatherDisplay:10.37,2013-02-12 14:27:00,
2013-02-12 05:32:00,24.4,21.9,29.35,ENE,68,3.5,3.5,90,0.00,CLR,SCT,0.00,WeatherDisplay:10.37,2013-02-12 14:32:00,
2013-02-12 05:37:00,24.4,21.9,29.35,NNE,22,5.8,5.8,90,0.00,CLR,SCT,0.00,WeatherDisplay:10.37,2013-02-12 14:37:00,
2013-02-12 05:42:00,24.4,21.9,29.35,ENE,68,6.9,6.9,90,0.00,CLR,SCT,0.00,WeatherDisplay:10.37,2013-02-12 14:42:00,
2013-02-12 05:47:00,24.4,21.9,29.35,ENE,68,4.0,0.0,90,0.00,CLR,SCT,0.00,WeatherDisplay:10.37,2013-02-12 14:47:00,
2013-02-12 05:52:00,24.6,22.1,29.35,ENE,68,3.5,3.5,90,0.00,CLR,SCT,0.00,WeatherDisplay:10.37,2013-02-12 14:52:00,
2013-02-12 05:57:00,24.6,22.1,29.35,ENE,68,5.8,5.8,90,0.00,CLR,SCT,0.00,WeatherDisplay:10.37,2013-02-12 14:57:00,
2013-02-12 06:02:00,24.6,22.1,29.35,ENE,68,4.9,0.0,90,0.00,CLR,SCT,0.00,WeatherDisplay:10.37,2013-02-12 15:02:00,
2013-02-12 06:07:00,24.8,22.0,29.35,ENE,68,6.9,6.9,89,0.00,CLR,SCT,0.00,WeatherDisplay:10.37,2013-02-12 15:07:00,
2013-02-12 06:12:00,24.8,22.0,29.35,ENE,68,4.6,4.6,89,0.00,CLR,SCT,0.00,WeatherDisplay:10.37,2013-02-12 15:12:00,
2013-02-12 06:17:00,24.6,21.8,29.35,NNE,22,5.8,5.8,89,0.00,CLR,SCT,0.00,WeatherDisplay:10.37,2013-02-12 15:17:00,
2013-02-12 06:22:00,24.8,22.0,29.35,East,90,5.8,5.8,89,0.00,CLR,SCT,0.00,WeatherDisplay:10.37,2013-02-12 15:22:00,
2013-02-12 06:27:00,24.6,21.8,29.35,East,90,3.6,3.6,89,0.00,CLR,SCT,0.00,WeatherDisplay:10.37,2013-02-12 15:27:00,
2013-02-12 06:32:00,24.6,21.8,29.35,ENE,68,4.6,4.6,89,0.00,CLR,SCT,0.00,WeatherDisplay:10.37,2013-02-12 15:32:00,
2013-02-12 06:37:00,24.6,21.6,29.35,ENE,68,5.8,5.8,88,0.00,CLR,SCT,0.00,WeatherDisplay:10.37,2013-02-12 15:37:00,
2013-02-12 06:42:00,24.6,21.6,29.35,North,0,5.8,5.8,88,0.00,CLR,SCT,0.00,WeatherDisplay:10.37,2013-02-12 15:42:00,
2013-02-12 06:47:00,24.4,21.4,29.35,ENE,68,3.5,3.5,88,0.00,CLR,SCT,0.00,WeatherDisplay:10.37,2013-02-12 15:47:00,
2013-02-12 06:52:00,24.4,21.4,29.35,NE,45,5.9,5.9,88,0.00,CLR,SCT,0.00,WeatherDisplay:10.37,2013-02-12 15:52:00,
2013-02-12 06:57:00,24.4,21.4,29.35,North,0,4.9,4.9,88,0.00,CLR,SCT,0.00,WeatherDisplay:10.37,2013-02-12 15:57:00,
2013-02-12 07:02:00,24.4,21.4,29.35,SSE,158,4.6,4.6,88,0.00,CLR,SCT,0.00,WeatherDisplay:10.37,2013-02-12 16:02:00,
2013-02-12 07:07:00,24.4,21.4,29.32,ENE,68,5.8,5.8,88,0.00,CLR,SCT,0.00,WeatherDisplay:10.37,2013-02-12 16:07:00,
2013-02-12 07:12:00,24.4,21.4,29.32,ENE,68,4.6,4.6,88,0.00,CLR,SCT,0.00,WeatherDisplay:10.37,2013-02-12 16:12:00,
2013-02-12 07:17:00,24.4,21.4,29.32,ENE,68,3.5,3.5,88,0.00,CLR,SCT,0.00,WeatherDisplay:10.37,2013-02-12 16:17:00,
2013-02-12 07:22:00,24.4,21.7,29.35,ENE,68,6.9,6.9,89,0.00,CLR,SCT,0.00,WeatherDisplay:10.37,2013-02-12 16:22:00,
2013-02-12 07:27:00,24.4,21.7,29.35,NE,45,4.6,4.6,89,0.00,CLR,SCT,0.00,WeatherDisplay:10.37,2013-02-12 16:27:00,
2013-02-12 07:32:00,24.4,21.7,29.35,ENE,68,5.9,5.9,89,0.00,CLR,SCT,0.00,WeatherDisplay:10.37,2013-02-12 16:32:00,
2013-02-12 07:37:00,24.6,21.8,29.35,NE,45,4.0,4.0,89,0.00,CLR,SCT,0.00,WeatherDisplay:10.37,2013-02-12 16:37:00,
2013-02-12 07:42:00,24.4,21.7,29.35,ENE,68,4.6,4.6,89,0.00,CLR,SCT,0.00,WeatherDisplay:10.37,2013-02-12 16:42:00,
2013-02-12 07:47:00,24.6,21.8,29.35,ENE,68,4.6,4.6,89,0.00,CLR,SCT,0.00,WeatherDisplay:10.37,2013-02-12 16:47:00,
2013-02-12 07:52:00,24.6,22.1,29.35,ENE,68,4.6,4.6,90,0.00,CLR,SCT,0.00,WeatherDisplay:10.37,2013-02-12 16:52:00,
2013-02-12 07:57:00,24.6,22.1,29.35,SE,135,8.1,8.1,90,0.00,CLR,SCT,0.00,WeatherDisplay:10.37,2013-02-12 16:57:00,
2013-02-12 08:02:00,24.8,22.3,29.35,ENE,68,6.9,6.9,90,0.00,CLR,SCT,0.00,WeatherDisplay:10.37,2013-02-12 17:02:00,
2013-02-12 08:07:00,24.8,22.3,29.35,ENE,68,5.4,5.4,90,0.00,CLR,SCT,0.00,WeatherDisplay:10.37,2013-02-12 17:07:00,
2013-02-12 08:12:00,25.0,22.2,29.35,ENE,68,4.6,4.6,89,0.00,CLR,SCT,0.00,WeatherDisplay:10.37,2013-02-12 17:12:00,
2013-02-12 08:17:00,25.0,22.2,29.35,ENE,68,4.6,4.6,89,0.00,CLR,SCT,0.00,WeatherDisplay:10.37,2013-02-12 17:17:00,
2013-02-12 08:22:00,25.0,22.2,29.32,ENE,68,5.4,0.0,89,0.00,CLR,SCT,0.00,WeatherDisplay:10.37,2013-02-12 17:22:00,
2013-02-12 08:27:00,25.0,22.5,29.32,ENE,68,4.0,4.0,90,0.00,CLR,SCT,0.00,WeatherDisplay:10.37,2013-02-12 17:27:00,
2013-02-12 08:33:00,25.0,22.5,29.32,ENE,68,4.6,4.6,90,0.00,CLR,SCT,0.00,WeatherDisplay:10.37,2013-02-12 17:33:00,
2013-02-12 08:38:00,25.0,22.5,29.32,ENE,68,3.5,0.0,90,0.00,CLR,SCT,0.00,WeatherDisplay:10.37,2013-02-12 17:38:00,
2013-02-12 08:43:00,25.0,22.5,29.32,ENE,68,5.8,5.8,90,0.00,CLR,SCT,0.00,WeatherDisplay:10.37,2013-02-12 17:43:00,
2013-02-12 08:48:00,25.2,22.6,29.32,ENE,68,3.5,4.5,90,0.00,CLR,SCT,0.00,WeatherDisplay:10.37,2013-02-12 17:48:00,
2013-02-12 08:53:00,25.2,22.6,29.32,ENE,68,5.8,5.8,90,0.00,CLR,SCT,0.00,WeatherDisplay:10.37,2013-02-12 17:53:00,
2013-02-12 08:58:00,25.2,22.6,29.32,ENE,68,3.5,3.5,90,0.00,CLR,SCT,0.00,WeatherDisplay:10.37,2013-02-12 17:58:00,
2013-02-12 09:03:00,25.3,22.8,29.32,NE,45,6.9,6.9,90,0.00,CLR,SCT,0.00,WeatherDisplay:10.37,2013-02-12 18:03:00,
2013-02-12 09:08:00,25.3,22.8,29.32,ENE,68,3.5,3.5,90,0.00,CLR,SCT,0.00,WeatherDisplay:10.37,2013-02-12 18:08:00,
2013-02-12 09:13:00,25.3,22.8,29.32,ENE,68,4.6,4.6,90,0.00,CLR,SCT,0.00,WeatherDisplay:10.37,2013-02-12 18:13:00,
2013-02-12 09:18:00,25.5,23.0,29.32,NE,45,3.5,0.0,90,0.00,CLR,SCT,0.00,WeatherDisplay:10.37,2013-02-12 18:18:00,
2013-02-12 09:24:00,25.5,23.0,29.32,ENE,68,4.6,4.6,90,0.00,CLR,SCT,0.00,WeatherDisplay:10.37,2013-02-12 18:24:00,
2013-02-12 09:29:00,25.7,23.2,29.32,NE,45,4.6,4.6,90,0.00,CLR,SCT,0.00,WeatherDisplay:10.37,2013-02-12 18:29:00,
2013-02-12 09:34:00,25.7,23.2,29.32,NE,45,3.5,0.0,90,0.00,CLR,SCT,0.00,WeatherDisplay:10.37,2013-02-12 18:34:00,
2013-02-12 09:39:00,25.9,23.4,29.32,ENE,68,3.5,0.0,90,0.00,CLR,SCT,0.00,WeatherDisplay:10.37,2013-02-12 18:39:00,
2013-02-12 09:44:00,25.9,23.4,29.32,ENE,68,5.8,5.8,90,0.00,CLR,SCT,0.00,WeatherDisplay:10.37,2013-02-12 18:44:00,
2013-02-12 09:49:00,25.9,23.4,29.32,ENE,68,6.9,6.9,90,0.00,CLR,SCT,0.00,WeatherDisplay:10.37,2013-02-12 18:49:00,
2013-02-12 09:54:00,26.1,23.5,29.32,ENE,68,8.1,8.1,90,0.00,CLR,SCT,0.00,WeatherDisplay:10.37,2013-02-12 18:54:00,
2013-02-12 09:59:00,26.1,23.5,29.32,ENE,68,3.6,3.6,90,0.00,CLR,SCT,0.00,WeatherDisplay:10.37,2013-02-12 18:59:00,
2013-02-12 10:04:00,26.1,23.5,29.32,ENE,68,3.5,3.5,90,0.00,CLR,SCT,0.00,WeatherDisplay:10.37,2013-02-12 19:04:00,
2013-02-12 10:09:00,26.1,23.5,29.32,ENE,68,5.8,5.8,90,0.00,CLR,SCT,0.00,WeatherDisplay:10.37,2013-02-12 19:09:00,
2013-02-12 10:14:00,26.1,23.5,29.32,ENE,68,4.6,4.6,90,0.00,CLR,SCT,0.00,WeatherDisplay:10.37,2013-02-12 19:14:00,
2013-02-12 10:19:00,26.1,23.5,29.32,ENE,68,2.6,0.0,90,0.00,CLR,SCT,0.00,WeatherDisplay:10.37,2013-02-12 19:19:00,
2013-02-12 10:24:00,26.1,23.5,29.32,ENE,68,4.6,4.6,90,0.00,CLR,SCT,0.00,WeatherDisplay:10.37,2013-02-12 19:24:00,
2013-02-12 10:29:00,26.1,23.5,29.32,NNE,22,5.8,5.8,90,0.00,CLR,SCT,0.00,WeatherDisplay:10.37,2013-02-12 19:29:00,
2013-02-12 10:34:00,26.1,23.5,29.32,NE,45,4.0,4.0,90,0.00,CLR,SCT,0.00,WeatherDisplay:10.37,2013-02-12 19:34:00,
2013-02-12 10:39:00,26.1,23.3,29.32,ENE,68,3.5,3.5,89,0.00,CLR,SCT,0.00,WeatherDisplay:10.37,2013-02-12 19:39:00,
2013-02-12 10:44:00,26.1,23.3,29.32,ENE,68,5.8,5.8,89,0.00,CLR,SCT,0.00,WeatherDisplay:10.37,2013-02-12 19:44:00,
2013-02-12 10:49:00,26.1,23.3,29.32,ENE,68,0.0,0.0,89,0.00,CLR,SCT,0.00,WeatherDisplay:10.37,2013-02-12 19:49:00,
2013-02-12 10:54:00,26.1,23.3,29.32,NNE,22,4.6,4.6,89,0.00,CLR,SCT,0.00,WeatherDisplay:10.37,2013-02-12 19:54:00,
2013-02-12 10:59:00,26.1,23.3,29.32,ENE,68,5.9,5.9,89,0.00,CLR,SCT,0.00,WeatherDisplay:10.37,2013-02-12 19:59:00,
2013-02-12 11:04:00,26.1,23.3,29.32,NE,45,3.5,0.0,89,0.00,CLR,SCT,0.00,WeatherDisplay:10.37,2013-02-12 20:04:00,
2013-02-12 11:09:00,26.1,23.3,29.32,NE,45,4.6,0.0,89,0.00,CLR,SCT,0.00,WeatherDisplay:10.37,2013-02-12 20:09:00,
2013-02-12 11:14:00,26.2,23.4,29.32,NNE,22,7.6,7.6,89,0.00,CLR,SCT,0.00,WeatherDisplay:10.37,2013-02-12 20:14:00,
2013-02-12 11:19:00,26.4,23.6,29.32,ENE,68,5.8,5.8,89,0.00,CLR,SCT,0.00,WeatherDisplay:10.37,2013-02-12 20:19:00,
2013-02-12 11:24:00,26.6,23.8,29.32,NNE,22,6.9,6.9,89,0.00,CLR,SCT,0.00,WeatherDisplay:10.37,2013-02-12 20:24:00,
2013-02-12 11:29:00,26.6,23.8,29.32,ENE,68,3.5,3.5,89,0.00,CLR,SCT,0.00,WeatherDisplay:10.37,2013-02-12 20:29:00,
2013-02-12 11:34:00,26.8,23.7,29.32,NE,45,4.6,4.6,88,0.00,CLR,SCT,0.00,WeatherDisplay:10.37,2013-02-12 20:34:00,
2013-02-12 11:39:00,27.0,23.9,29.32,NE,45,5.8,5.8,88,0.00,CLR,SCT,0.00,WeatherDisplay:10.37,2013-02-12 20:39:00,
2013-02-12 11:44:00,27.0,23.9,29.32,ENE,68,5.8,5.8,88,0.00,CLR,SCT,0.00,WeatherDisplay:10.37,2013-02-12 20:44:00,
2013-02-12 11:49:00,27.0,23.9,29.32,ENE,68,5.8,5.8,88,0.00,CLR,SCT,0.00,WeatherDisplay:10.37,2013-02-12 20:49:00,
2013-02-12 11:54:00,27.0,23.6,29.32,NNW,338,2.3,2.6,87,0.00,CLR,SCT,0.00,WeatherDisplay:10.37,2013-02-12 20:54:00,
2013-02-12 11:59:00,27.0,23.6,29.32,ENE,68,6.9,6.9,87,0.00,CLR,SCT,0.00,WeatherDisplay:10.37,2013-02-12 20:59:00,
2013-02-12 12:04:00,27.1,23.8,29.32,ENE,68,5.9,5.9,87,0.00,CLR,SCT,0.00,WeatherDisplay:10.37,2013-02-12 21:04:00,
2013-02-12 12:10:00,27.0,23.3,29.32,NE,45,4.9,4.9,86,0.00,CLR,SCT,0.00,WeatherDisplay:10.37,2013-02-12 21:10:00,
2013-02-12 12:15:00,27.0,23.3,29.32,NNE,22,8.1,8.1,86,0.00,CLR,SCT,0.00,WeatherDisplay:10.37,2013-02-12 21:15:00,
2013-02-12 12:20:00,27.0,23.3,29.32,ENE,68,7.1,7.1,86,0.00,CLR,SCT,0.00,WeatherDisplay:10.37,2013-02-12 21:20:00,
2013-02-12 12:25:00,27.0,23.1,29.32,ENE,68,6.2,6.2,85,0.00,CLR,SCT,0.00,WeatherDisplay:10.37,2013-02-12 21:25:00,
2013-02-12 12:30:00,27.1,23.2,29.32,ENE,68,5.8,5.8,85,0.00,CLR,SCT,0.00,WeatherDisplay:10.37,2013-02-12 21:30:00,
2013-02-12 12:35:00,27.3,23.4,29.32,ENE,68,0.0,0.0,85,0.00,CLR,SCT,0.00,WeatherDisplay:10.37,2013-02-12 21:35:00,
2013-02-12 12:40:00,27.3,23.4,29.32,North,0,5.8,5.8,85,0.00,CLR,SCT,0.00,WeatherDisplay:10.37,2013-02-12 21:40:00,
2013-02-12 12:45:00,27.3,23.4,29.32,ENE,68,4.6,4.6,85,0.00,CLR,SCT,0.00,WeatherDisplay:10.37,2013-02-12 21:45:00,
2013-02-12 12:50:00,27.7,23.8,29.32,NNE,22,3.5,3.5,85,0.00,CLR,SCT,0.00,WeatherDisplay:10.37,2013-02-12 21:50:00,
2013-02-12 12:55:00,27.3,23.1,29.32,NNE,22,4.6,5.4,84,0.00,CLR,SCT,0.00,WeatherDisplay:10.37,2013-02-12 21:55:00,
2013-02-12 13:00:00,27.5,23.3,29.32,North,0,4.6,4.6,84,0.00,CLR,SCT,0.00,WeatherDisplay:10.37,2013-02-12 22:00:00,
2013-02-12 13:05:00,27.7,23.5,29.32,ENE,68,5.8,5.8,84,0.00,CLR,SCT,0.00,WeatherDisplay:10.37,2013-02-12 22:05:00,
2013-02-12 13:10:00,27.9,23.4,29.32,NE,45,5.8,5.8,83,0.00,CLR,SCT,0.00,WeatherDisplay:10.37,2013-02-12 22:10:00,
2013-02-12 13:15:00,27.5,23.0,29.32,ENE,68,3.6,3.6,83,0.00,CLR,SCT,0.00,WeatherDisplay:10.37,2013-02-12 22:15:00,
2013-02-12 13:20:00,27.7,23.2,29.32,NE,45,3.5,3.5,83,0.00,CLR,SCT,0.00,WeatherDisplay:10.37,2013-02-12 22:20:00,
2013-02-12 13:25:00,27.7,23.2,29.32,ENE,68,5.8,5.8,83,0.00,CLR,SCT,0.00,WeatherDisplay:10.37,2013-02-12 22:25:00,
2013-02-12 13:30:00,27.5,22.7,29.32,NE,45,2.3,2.6,82,0.00,CLR,SCT,0.00,WeatherDisplay:10.37,2013-02-12 22:30:00,
2013-02-12 13:35:00,27.9,23.1,29.32,North,0,5.8,5.8,82,0.00,CLR,SCT,0.00,WeatherDisplay:10.37,2013-02-12 22:35:00,
2013-02-12 13:40:00,27.9,23.1,29.32,East,90,5.8,5.8,82,0.00,CLR,SCT,0.00,WeatherDisplay:10.37,2013-02-12 22:40:00,
2013-02-12 13:45:00,27.9,23.1,29.32,NE,45,3.5,3.6,82,0.00,CLR,SCT,0.00,WeatherDisplay:10.37,2013-02-12 22:45:00,
2013-02-12 13:50:00,27.9,23.1,29.32,ENE,68,5.9,5.9,82,0.00,CLR,SCT,0.00,WeatherDisplay:10.37,2013-02-12 22:50:00,
2013-02-12 13:55:00,27.9,23.1,29.32,NE,45,4.6,4.6,82,0.00,CLR,SCT,0.00,WeatherDisplay:10.37,2013-02-12 22:55:00,
2013-02-12 14:00:00,27.9,22.8,29.32,ENE,68,4.9,4.9,81,0.00,CLR,SCT,0.00,WeatherDisplay:10.37,2013-02-12 23:00:00,
2013-02-12 14:05:00,28.0,23.3,29.32,ENE,68,5.9,5.9,82,0.00,CLR,SCT,0.00,WeatherDisplay:10.37,2013-02-12 23:05:00,
2013-02-12 14:10:00,28.0,23.0,29.32,North,0,2.6,0.0,81,0.00,CLR,SCT,0.00,WeatherDisplay:10.37,2013-02-12 23:10:00,
2013-02-12 14:15:00,28.2,23.1,29.32,NE,45,6.2,6.2,81,0.00,CLR,SCT,0.00,WeatherDisplay:10.37,2013-02-12 23:15:00,
2013-02-12 14:20:00,28.2,23.1,29.32,NNW,338,4.6,0.0,81,0.00,CLR,SCT,0.00,WeatherDisplay:10.37,2013-02-12 23:20:00,
2013-02-12 14:25:00,28.2,23.4,29.32,North,0,4.6,4.6,82,0.00,CLR,SCT,0.00,WeatherDisplay:10.37,2013-02-12 23:25:00,
2013-02-12 14:30:00,28.2,23.1,29.32,NE,45,4.6,4.6,81,0.00,CLR,SCT,0.00,WeatherDisplay:10.37,2013-02-12 23:30:00,
2013-02-12 14:35:00,28.2,23.4,29.32,SSE,158,4.6,4.6,82,0.00,CLR,SCT,0.00,WeatherDisplay:10.37,2013-02-12 23:35:00,
2013-02-12 14:40:00,27.9,22.8,29.29,ENE,68,11.5,11.5,81,0.00,CLR,SCT,0.00,WeatherDisplay:10.37,2013-02-12 23:40:00,
2013-02-12 14:45:00,27.9,22.8,29.29,North,0,3.5,3.5,81,0.00,CLR,SCT,0.00,WeatherDisplay:10.37,2013-02-12 23:45:00,
2013-02-12 14:50:00,27.9,22.8,29.29,NE,45,4.6,0.0,81,0.00,CLR,SCT,0.00,WeatherDisplay:10.37,2013-02-12 23:50:00,
2013-02-12 14:55:00,28.0,23.0,29.29,SE,135,3.6,3.6,81,0.00,CLR,SCT,0.00,WeatherDisplay:10.37,2013-02-12 23:55:00,
2013-02-12 15:00:00,28.0,23.0,29.29,NE,45,3.6,3.6,81,0.00,CLR,SCT,0.00,WeatherDisplay:10.37,2013-02-13 00:00:00,
2013-02-12 15:05:00,27.9,22.5,29.29,ENE,68,4.9,4.9,80,0.00,CLR,SCT,0.00,WeatherDisplay:10.37,2013-02-13 00:05:00,
2013-02-12 15:10:00,27.9,22.5,29.29,NE,45,2.2,0.0,80,0.00,CLR,SCT,0.00,WeatherDisplay:10.37,2013-02-13 00:10:00,
2013-02-12 15:15:00,27.9,22.5,29.29,North,0,6.9,6.9,80,0.00,CLR,SCT,0.00,WeatherDisplay:10.37,2013-02-13 00:15:00,
2013-02-12 15:20:00,27.9,22.5,29.29,North,0,9.2,9.2,80,0.00,CLR,SCT,0.00,WeatherDisplay:10.37,2013-02-13 00:20:00,
2013-02-12 15:25:00,27.7,22.0,29.29,North,0,5.8,5.8,79,0.00,CLR,SCT,0.00,WeatherDisplay:10.37,2013-02-13 00:25:00,
2013-02-12 15:30:00,27.9,22.2,29.29,NNE,22,6.9,6.9,79,0.00,CLR,SCT,0.00,WeatherDisplay:10.37,2013-02-13 00:30:00,
2013-02-12 15:40:00,27.7,22.0,29.29,NNE,22,5.8,5.8,79,0.00,CLR,SCT,0.00,WeatherDisplay:10.37,2013-02-13 00:40:00,
2013-02-12 15:45:00,27.7,21.7,29.29,North,0,8.1,8.1,78,0.00,CLR,SCT,0.00,WeatherDisplay:10.37,2013-02-13 00:45:00,
2013-02-12 15:50:00,27.7,21.7,29.29,East,90,5.8,5.9,78,0.00,CLR,SCT,0.00,WeatherDisplay:10.37,2013-02-13 00:50:00,
2013-02-12 15:55:00,27.5,21.5,29.29,NW,315,5.9,5.9,78,0.00,CLR,SCT,0.00,WeatherDisplay:10.37,2013-02-13 00:55:00,
2013-02-12 16:00:00,27.5,21.5,29.29,North,0,5.8,5.8,78,0.00,CLR,SCT,0.00,WeatherDisplay:10.37,2013-02-13 01:00:00,
2013-02-12 16:05:00,27.3,21.4,29.29,NE,45,8.1,8.1,78,0.00,CLR,SCT,0.00,WeatherDisplay:10.37,2013-02-13 01:05:00,
2013-02-12 16:10:00,27.5,21.5,29.29,East,90,2.3,2.3,78,0.00,CLR,SCT,0.00,WeatherDisplay:10.37,2013-02-13 01:10:00,
2013-02-12 16:15:00,27.5,21.5,29.29,ENE,68,4.0,4.0,78,0.00,CLR,SCT,0.00,WeatherDisplay:10.37,2013-02-13 01:15:00,
2013-02-12 16:20:00,27.5,21.5,29.29,ENE,68,4.6,4.6,78,0.00,CLR,SCT,0.00,WeatherDisplay:10.37,2013-02-13 01:20:00,
2013-02-12 16:25:00,27.5,21.5,29.29,NW,315,5.8,5.8,78,0.00,CLR,SCT,0.00,WeatherDisplay:10.37,2013-02-13 01:25:00,
2013-02-12 16:30:00,27.5,21.8,29.29,NNE,22,6.9,6.9,79,0.00,CLR,SCT,0.00,WeatherDisplay:10.37,2013-02-13 01:30:00,
2013-02-12 16:35:00,27.3,21.7,29.29,ENE,68,4.6,4.6,79,0.00,CLR,SCT,0.00,WeatherDisplay:10.37,2013-02-13 01:35:00,
2013-02-12 16:40:00,27.3,21.7,29.29,ENE,68,6.9,6.9,79,0.00,CLR,SCT,0.00,WeatherDisplay:10.37,2013-02-13 01:40:00,
2013-02-12 16:45:00,27.3,21.7,29.29,NE,45,7.6,7.6,79,0.00,CLR,SCT,0.00,WeatherDisplay:10.37,2013-02-13 01:45:00,
2013-02-12 16:50:00,27.3,21.7,29.29,North,0,5.8,5.8,79,0.00,CLR,SCT,0.00,WeatherDisplay:10.37,2013-02-13 01:50:00,
2013-02-12 16:55:00,27.3,22.0,29.29,North,0,5.8,5.8,80,0.00,CLR,SCT,0.00,WeatherDisplay:10.37,2013-02-13 01:55:00,
2013-02-12 17:00:00,27.1,21.8,29.29,NE,45,6.9,6.9,80,0.00,CLR,SCT,0.00,WeatherDisplay:10.37,2013-02-13 02:00:00,
2013-02-12 17:05:00,27.3,22.0,29.29,NNE,22,8.1,8.1,80,0.00,CLR,SCT,0.00,WeatherDisplay:10.37,2013-02-13 02:05:00,
2013-02-12 17:10:00,27.1,21.8,29.29,ENE,68,5.8,5.8,80,0.00,CLR,SCT,0.00,WeatherDisplay:10.37,2013-02-13 02:10:00,
2013-02-12 17:15:00,27.1,22.1,29.29,NE,45,8.1,8.1,81,0.00,CLR,SCT,0.00,WeatherDisplay:10.37,2013-02-13 02:15:00,
2013-02-12 17:20:00,27.1,22.1,29.29,NE,45,5.4,0.0,81,0.00,CLR,SCT,0.00,WeatherDisplay:10.37,2013-02-13 02:20:00,
2013-02-12 17:25:00,27.1,22.1,29.32,NNE,22,0.0,0.0,81,0.00,CLR,SCT,0.00,WeatherDisplay:10.37,2013-02-13 02:25:00,
2013-02-12 17:30:00,27.1,22.1,29.32,NNW,338,4.6,4.6,81,0.00,CLR,SCT,0.00,WeatherDisplay:10.37,2013-02-13 02:30:00,
2013-02-12 17:35:00,27.1,22.1,29.32,NNE,22,4.6,4.6,81,0.00,CLR,SCT,0.00,WeatherDisplay:10.37,2013-02-13 02:35:00,
2013-02-12 17:40:00,27.1,22.4,29.32,NE,45,3.5,0.0,82,0.00,CLR,SCT,0.00,WeatherDisplay:10.37,2013-02-13 02:40:00,
2013-02-12 17:45:00,27.1,22.4,29.32,ENE,68,5.9,5.9,82,0.00,CLR,SCT,0.00,WeatherDisplay:10.37,2013-02-13 02:45:00,
2013-02-12 17:50:00,27.1,22.4,29.32,North,0,5.8,5.8,82,0.00,CLR,SCT,0.00,WeatherDisplay:10.37,2013-02-13 02:50:00,
2013-02-12 17:55:00,27.1,22.7,29.32,NE,45,3.6,0.0,83,0.00,CLR,SCT,0.00,WeatherDisplay:10.37,2013-02-13 02:55:00,
2013-02-12 18:00:00,27.1,22.7,29.32,NE,45,3.5,3.5,83,0.00,CLR,SCT,0.00,WeatherDisplay:10.37,2013-02-13 03:00:00,
2013-02-12 18:05:00,27.1,22.7,29.32,NE,45,2.6,0.0,83,0.00,CLR,SCT,0.00,WeatherDisplay:10.37,2013-02-13 03:05:00,
2013-02-12 18:10:00,27.1,22.7,29.32,NNE,22,3.5,3.5,83,0.00,CLR,SCT,0.00,WeatherDisplay:10.37,2013-02-13 03:10:00,
2013-02-12 18:15:00,27.1,22.7,29.32,ENE,68,5.4,5.4,83,0.00,CLR,SCT,0.00,WeatherDisplay:10.37,2013-02-13 03:15:00,
2013-02-12 18:20:00,27.1,22.9,29.32,SE,135,3.5,3.5,84,0.00,CLR,SCT,0.00,WeatherDisplay:10.37,2013-02-13 03:20:00,
2013-02-12 18:25:00,27.1,22.9,29.32,North,0,0.0,0.0,84,0.00,CLR,SCT,0.00,WeatherDisplay:10.37,2013-02-13 03:25:00,
2013-02-12 18:30:00,27.1,22.9,29.32,NNE,22,3.5,3.5,84,0.00,CLR,SCT,0.00,WeatherDisplay:10.37,2013-02-13 03:30:00,
2013-02-12 18:35:00,27.1,22.9,29.32,NNE,22,4.6,4.6,84,0.00,CLR,SCT,0.00,WeatherDisplay:10.37,2013-02-13 03:35:00,
2013-02-12 18:40:00,27.1,23.2,29.32,NNE,22,3.5,0.0,85,0.00,CLR,SCT,0.00,WeatherDisplay:10.37,2013-02-13 03:40:00,
2013-02-12 18:45:00,27.1,23.2,29.32,NNE,22,0.0,0.0,85,0.00,CLR,SCT,0.00,WeatherDisplay:10.37,2013-02-13 03:45:00,
2013-02-12 18:50:00,27.1,23.2,29.32,NNE,22,4.6,0.0,85,0.00,CLR,SCT,0.00,WeatherDisplay:10.37,2013-02-13 03:50:00,
2013-02-12 18:55:00,27.3,23.7,29.32,NNE,22,3.5,0.0,86,0.00,CLR,SCT,0.00,WeatherDisplay:10.37,2013-02-13 03:55:00,
2013-02-12 19:00:00,27.3,23.7,29.32,NNE,22,4.6,4.6,86,0.00,CLR,SCT,0.00,WeatherDisplay:10.37,2013-02-13 04:00:00,
2013-02-12 19:05:00,27.5,23.9,29.32,ENE,68,6.2,6.2,86,0.00,CLR,SCT,0.00,WeatherDisplay:10.37,2013-02-13 04:05:00,
2013-02-12 19:10:00,27.5,24.1,29.32,North,0,4.6,4.6,87,0.00,CLR,SCT,0.00,WeatherDisplay:10.37,2013-02-13 04:10:00,
2013-02-12 19:15:00,27.5,24.1,29.32,NNE,22,5.9,5.9,87,0.00,CLR,SCT,0.00,WeatherDisplay:10.37,2013-02-13 04:15:00,
2013-02-12 19:20:00,27.5,24.1,29.32,North,0,4.6,4.6,87,0.00,CLR,SCT,0.00,WeatherDisplay:10.37,2013-02-13 04:20:00,
2013-02-12 19:25:00,27.5,24.1,29.32,North,0,5.8,0.0,87,0.00,CLR,SCT,0.00,WeatherDisplay:10.37,2013-02-13 04:25:00,
2013-02-12 19:30:00,27.5,24.1,29.32,North,0,2.6,0.0,87,0.00,CLR,SCT,0.00,WeatherDisplay:10.37,2013-02-13 04:30:00,
2013-02-12 19:35:00,27.3,24.0,29.32,NE,45,3.5,3.5,87,0.00,CLR,SCT,0.00,WeatherDisplay:10.37,2013-02-13 04:35:00,
2013-02-12 19:40:00,27.5,24.1,29.32,East,90,5.9,5.9,87,0.00,CLR,SCT,0.00,WeatherDisplay:10.37,2013-02-13 04:40:00,
2013-02-12 19:45:00,27.5,24.1,29.32,NNE,22,4.6,4.6,87,0.00,CLR,SCT,0.00,WeatherDisplay:10.37,2013-02-13 04:45:00,
2013-02-12 19:50:00,27.7,24.6,29.32,ENE,68,3.5,3.5,88,0.00,CLR,SCT,0.00,WeatherDisplay:10.37,2013-02-13 04:50:00,
2013-02-12 19:55:00,27.5,24.4,29.32,ENE,68,8.1,8.1,88,0.00,CLR,SCT,0.00,WeatherDisplay:10.37,2013-02-13 04:55:00,
2013-02-12 20:00:00,27.5,24.4,29.32,WSW,248,8.1,8.1,88,0.00,CLR,SCT,0.00,WeatherDisplay:10.37,2013-02-13 05:00:00,
2013-02-12 20:05:00,27.5,24.4,29.32,ENE,68,4.0,4.0,88,0.00,CLR,SCT,0.00,WeatherDisplay:10.37,2013-02-13 05:05:00,
2013-02-12 20:10:00,27.3,24.0,29.32,North,0,5.8,5.8,87,0.00,CLR,SCT,0.00,WeatherDisplay:10.37,2013-02-13 05:10:00,
2013-02-12 20:15:00,27.1,23.8,29.32,NNW,338,3.5,3.5,87,0.00,CLR,SCT,0.00,WeatherDisplay:10.37,2013-02-13 05:15:00,
2013-02-12 20:20:00,27.1,23.8,29.32,North,0,3.5,3.5,87,0.00,CLR,SCT,0.00,WeatherDisplay:10.37,2013-02-13 05:20:00,
2013-02-12 20:25:00,27.1,24.1,29.32,ENE,68,6.9,6.9,88,0.00,CLR,SCT,0.00,WeatherDisplay:10.37,2013-02-13 05:25:00,
2013-02-12 20:30:00,27.1,24.1,29.32,ENE,68,3.5,3.5,88,0.00,CLR,SCT,0.00,WeatherDisplay:10.37,2013-02-13 05:30:00,
2013-02-12 20:35:00,27.1,24.1,29.32,ENE,68,3.5,0.0,88,0.00,CLR,SCT,0.00,WeatherDisplay:10.37,2013-02-13 05:35:00,
2013-02-12 20:40:00,27.3,24.2,29.32,ENE,68,5.8,5.8,88,0.00,CLR,SCT,0.00,WeatherDisplay:10.37,2013-02-13 05:40:00,
2013-02-12 20:45:00,27.3,24.2,29.32,NE,45,4.6,4.6,88,0.00,CLR,SCT,0.00,WeatherDisplay:10.37,2013-02-13 05:45:00,
2013-02-12 20:50:00,27.5,24.4,29.32,NE,45,3.6,3.6,88,0.00,CLR,SCT,0.00,WeatherDisplay:10.37,2013-02-13 05:50:00,
2013-02-12 20:55:00,27.3,24.2,29.32,NNE,22,3.5,3.5,88,0.00,CLR,SCT,0.00,WeatherDisplay:10.37,2013-02-13 05:55:00,
2013-02-12 21:00:00,27.3,24.2,29.32,ENE,68,5.8,5.8,88,0.00,CLR,SCT,0.00,WeatherDisplay:10.37,2013-02-13 06:00:00,
2013-02-12 21:06:00,27.3,24.2,29.32,North,0,5.4,5.4,88,0.00,CLR,SCT,0.00,WeatherDisplay:10.37,2013-02-13 06:06:00,
2013-02-12 21:11:00,27.3,24.2,29.32,NE,45,8.1,8.1,88,0.00,CLR,SCT,0.00,WeatherDisplay:10.37,2013-02-13 06:11:00,
2013-02-12 21:16:00,27.3,24.2,29.32,ENE,68,6.9,6.9,88,0.00,CLR,SCT,0.00,WeatherDisplay:10.37,2013-02-13 06:16:00,
2013-02-12 21:21:00,27.3,24.2,29.32,ENE,68,4.6,4.6,88,0.00,CLR,SCT,0.00,WeatherDisplay:10.37,2013-02-13 06:21:00,
2013-02-12 21:26:00,27.3,24.2,29.32,NE,45,4.6,4.6,88,0.00,CLR,SCT,0.00,WeatherDisplay:10.37,2013-02-13 06:26:00,
2013-02-12 21:31:00,27.3,24.2,29.32,East,90,3.5,4.0,88,0.00,CLR,SCT,0.00,WeatherDisplay:10.37,2013-02-13 06:31:00,
2013-02-12 21:36:00,27.3,24.2,29.32,NNE,22,6.2,6.2,88,0.00,CLR,SCT,0.00,WeatherDisplay:10.37,2013-02-13 06:36:00,
2013-02-12 21:41:00,27.3,24.2,29.32,NNE,22,5.8,5.8,88,0.00,CLR,SCT,0.00,WeatherDisplay:10.37,2013-02-13 06:41:00,
2013-02-12 21:46:00,27.3,24.2,29.32,NNE,22,3.5,3.5,88,0.00,CLR,SCT,0.00,WeatherDisplay:10.37,2013-02-13 06:46:00,
2013-02-12 21:51:00,27.3,24.2,29.32,ENE,68,4.9,4.9,88,0.00,CLR,SCT,0.00,WeatherDisplay:10.37,2013-02-13 06:51:00,
2013-02-12 21:56:00,27.5,24.4,29.32,NE,45,4.6,4.6,88,0.00,CLR,SCT,0.00,WeatherDisplay:10.37,2013-02-13 06:56:00,
2013-02-12 22:01:00,27.3,24.2,29.32,ENE,68,8.3,8.3,88,0.00,CLR,SCT,0.00,WeatherDisplay:10.37,2013-02-13 07:01:00,
2013-02-12 22:06:00,27.1,24.1,29.32,NNE,22,5.8,5.8,88,0.00,CLR,SCT,0.00,WeatherDisplay:10.37,2013-02-13 07:06:00,
2013-02-12 22:11:00,27.3,24.5,29.32,ENE,68,4.6,4.6,89,0.00,CLR,SCT,0.00,WeatherDisplay:10.37,2013-02-13 07:11:00,
2013-02-12 22:16:00,27.1,24.3,29.32,ENE,68,10.0,10.0,89,0.00,CLR,SCT,0.00,WeatherDisplay:10.37,2013-02-13 07:16:00,
2013-02-12 22:21:00,27.1,24.3,29.32,ENE,68,5.8,5.8,89,0.00,CLR,SCT,0.00,WeatherDisplay:10.37,2013-02-13 07:21:00,
2013-02-12 22:26:00,27.3,24.5,29.35,NNE,22,4.6,4.6,89,0.00,CLR,SCT,0.00,WeatherDisplay:10.37,2013-02-13 07:26:00,
2013-02-12 22:31:00,27.0,24.2,29.35,NNW,338,0.0,0.0,89,0.00,CLR,SCT,0.00,WeatherDisplay:10.37,2013-02-13 07:31:00,
2013-02-12 22:36:00,27.0,24.2,29.35,North,0,3.5,0.0,89,0.00,CLR,SCT,0.00,WeatherDisplay:10.37,2013-02-13 07:36:00,
2013-02-12 22:41:00,27.0,24.2,29.35,NNE,22,3.5,0.0,89,0.00,CLR,SCT,0.00,WeatherDisplay:10.37,2013-02-13 07:41:00,
2013-02-12 22:46:00,27.0,24.2,29.35,NE,45,5.4,5.4,89,0.00,CLR,SCT,0.00,WeatherDisplay:10.37,2013-02-13 07:46:00,
2013-02-12 22:51:00,27.0,24.4,29.35,NE,45,4.6,4.6,90,0.00,CLR,SCT,0.00,WeatherDisplay:10.37,2013-02-13 07:51:00,
2013-02-12 22:56:00,27.0,24.4,29.32,NNE,22,2.3,2.3,90,0.00,CLR,SCT,0.00,WeatherDisplay:10.37,2013-02-13 07:56:00,
2013-02-12 23:01:00,26.6,24.1,29.32,NNE,22,0.0,0.0,90,0.00,CLR,SCT,0.00,WeatherDisplay:10.37,2013-02-13 08:01:00,
2013-02-12 23:06:00,26.4,23.9,29.32,NNE,22,0.0,0.0,90,0.00,CLR,SCT,0.00,WeatherDisplay:10.37,2013-02-13 08:06:00,
2013-02-12 23:11:00,26.6,24.1,29.32,NNE,22,0.0,0.0,90,0.00,CLR,SCT,0.00,WeatherDisplay:10.37,2013-02-13 08:11:00,
2013-02-12 23:16:00,26.4,23.9,29.32,NNE,22,3.5,3.5,90,0.00,CLR,SCT,0.00,WeatherDisplay:10.37,2013-02-13 08:16:00,
2013-02-12 23:21:00,26.6,24.3,29.32,NNE,22,0.0,0.0,91,0.00,CLR,SCT,0.00,WeatherDisplay:10.37,2013-02-13 08:21:00,
2013-02-12 23:26:00,26.6,24.3,29.32,NNE,22,3.5,0.0,91,0.00,CLR,SCT,0.00,WeatherDisplay:10.37,2013-02-13 08:26:00,
2013-02-12 23:31:00,27.0,24.7,29.32,NE,45,0.0,0.0,91,0.00,CLR,SCT,0.00,WeatherDisplay:10.37,2013-02-13 08:31:00,
2013-02-12 23:36:00,27.0,24.7,29.32,NE,45,3.5,0.0,91,0.00,CLR,SCT,0.00,WeatherDisplay:10.37,2013-02-13 08:36:00,
2013-02-12 23:41:00,27.1,24.9,29.35,NE,45,0.0,0.0,91,0.00,CLR,SCT,0.00,WeatherDisplay:10.37,2013-02-13 08:41:00,
2013-02-12 23:46:00,27.1,24.9,29.35,NE,45,0.0,0.0,91,0.00,CLR,SCT,0.00,WeatherDisplay:10.37,2013-02-13 08:46:00,
2013-02-12 23:51:00,27.5,25.5,29.35,NE,45,0.0,0.0,92,0.00,CLR,SCT,0.00,WeatherDisplay:10.37,2013-02-13 08:51:00,
2013-02-12 23:56:00,27.3,25.3,29.32,NE,45,0.0,0.0,92,0.00,CLR,SCT,0.00,WeatherDisplay:10.37,2013-02-13 08:56:00,